| time (UTC) | temp C | wind direction | speed KPH | gust KPH | rain 1hr cm | rain 24hr cm | rain mn cm | humidity % | barometer mb |
| 20260505192218 | 13 | 158 | 3.2 | 12.9 | 0.00 | 0.00 | 0.00 | 42 | 1012.3 |
| 20260505191238 | 12 | 203 | 11.3 | 24.1 | 0.00 | 0.00 | 0.00 | 48 | 1012.2 |
| 20260505190218 | 12 | 135 | 6.4 | 9.7 | 0.00 | 0.00 | 0.00 | 48 | 1012.3 |
| 20260505185218 | 12 | 135 | 4.8 | 16.1 | 0.00 | 0.00 | 0.00 | 45 | 1012.1 |
| 20260505184217 | 12 | 203 | 9.7 | 16.1 | 0.00 | 0.00 | 0.00 | 42 | 1011.9 |
| 20260505183218 | 12 | 203 | 16.1 | 20.9 | 0.00 | 0.00 | 0.00 | 38 | 1012.1 |
| 20260505182218 | 12 | 248 | 8.0 | 14.5 | 0.00 | 0.00 | 0.00 | 40 | 1012.5 |
| 20260505181217 | 12 | 203 | 9.7 | 17.7 | 0.00 | 0.00 | 0.00 | 43 | 1012.1 |
| 20260505180218 | 11 | 203 | 8.0 | 12.9 | 0.00 | 0.00 | 0.00 | 39 | 1011.9 |
| 20260505175218 | 11 | 180 | 8.0 | 16.1 | 0.00 | 0.00 | 0.00 | 43 | 1011.9 |
| 20260505174218 | 11 | 180 | 12.9 | 20.9 | 0.00 | 0.00 | 0.00 | 41 | 1011.9 |
| 20260505173258 | 11 | 203 | 9.7 | 17.7 | 0.00 | 0.00 | 0.00 | 42 | 1012.4 |
| 20260505172218 | 11 | 225 | 9.7 | 16.1 | 0.00 | 0.00 | 0.00 | 46 | 1012.0 |
| 20260505171238 | 10 | 293 | 3.2 | 8.0 | 0.00 | 0.00 | 0.00 | 46 | 1011.4 |
| 20260505170258 | 10 | 203 | 12.9 | 17.7 | 0.00 | 0.00 | 0.00 | 45 | 1011.6 |
| 20260505165218 | 9 | 203 | 12.9 | 24.1 | 0.00 | 0.00 | 0.00 | 49 | 1011.5 |
| 20260505164238 | 8 | 180 | 11.3 | 14.5 | 0.00 | 0.00 | 0.00 | 49 | 1011.4 |
| 20260505163218 | 8 | 203 | 16.1 | 19.3 | 0.00 | 0.00 | 0.00 | 50 | 1011.9 |
| 20260505162217 | 8 | 203 | 14.5 | 19.3 | 0.00 | 0.00 | 0.00 | 50 | 1011.8 |
| 20260505161217 | 8 | 225 | 11.3 | 16.1 | 0.00 | 0.00 | 0.00 | 51 | 1011.8 |
| 20260505160237 | 8 | 203 | 12.9 | 16.1 | 0.00 | 0.00 | 0.00 | 50 | 1011.6 |
| 20260505153217 | 8 | 203 | 12.9 | 24.1 | 0.00 | 0.00 | 0.00 | 51 | 1011.5 |
| 20260505152238 | 8 | 180 | 12.9 | 19.3 | 0.00 | 0.00 | 0.00 | 53 | 1011.5 |
| 20260505151218 | 8 | 203 | 6.4 | 9.7 | 0.00 | 0.00 | 0.00 | 58 | 1011.6 |
| 20260505150238 | 8 | 203 | 11.3 | 14.5 | 0.00 | 0.00 | 0.00 | 54 | 1011.6 |
| 20260505140217 | 7 | 203 | 12.9 | 19.3 | 0.00 | 0.00 | 0.00 | 64 | 1011.2 |
| 20260505130217 | 5 | 0.0 | 0.0 | 0.00 | 0.00 | 0.00 | 65 | 1010.8 | |
| 20260505124217 | 6 | 0.0 | 0.0 | 0.00 | 0.00 | 0.00 | 64 | 1010.9 | |
| 20260505123217 | 6 | 203 | 8.0 | 9.7 | 0.00 | 0.00 | 0.00 | 64 | 1011.0 |
| 20260505122218 | 6 | 225 | 4.8 | 9.7 | 0.00 | 0.00 | 0.00 | 64 | 1010.9 |
| 20260505121217 | 6 | 203 | 1.6 | 4.8 | 0.00 | 0.00 | 0.00 | 63 | 1010.9 |
| 20260505120217 | 6 | 0.0 | 0.0 | 0.00 | 0.00 | 0.00 | 62 | 1011.4 | |
| 20260505115238 | 6 | 0.0 | 3.2 | 0.00 | 0.00 | 0.00 | 61 | 1011.6 | |
| 20260505114217 | 6 | 315 | 4.8 | 6.4 | 0.00 | 0.00 | 0.00 | 61 | 1011.7 |
| 20260505113217 | 6 | 203 | 6.4 | 16.1 | 0.00 | 0.00 | 0.00 | 62 | 1011.8 |
| 20260505112237 | 6 | 203 | 16.1 | 27.4 | 0.00 | 0.00 | 0.00 | 63 | 1011.8 |
| 20260505111217 | 6 | 225 | 8.0 | 14.5 | 0.00 | 0.00 | 0.00 | 63 | 1011.7 |
| 20260505110217 | 6 | 203 | 8.0 | 12.9 | 0.00 | 0.00 | 0.00 | 61 | 1011.6 |
| 20260505102217 | 6 | 203 | 6.4 | 12.9 | 0.00 | 0.00 | 0.00 | 54 | 1011.8 |
| 20260505101217 | 6 | 270 | 1.6 | 9.7 | 0.00 | 0.00 | 0.00 | 55 | 1012.0 |
| 20260505100217 | 6 | 203 | 6.4 | 8.0 | 0.00 | 0.00 | 0.00 | 55 | 1012.3 |
| 20260505095217 | 6 | 225 | 8.0 | 12.9 | 0.00 | 0.00 | 0.00 | 55 | 1012.4 |
| 20260505094217 | 6 | 225 | 8.0 | 12.9 | 0.00 | 0.00 | 0.00 | 54 | 1012.7 |
| 20260505093217 | 6 | 225 | 6.4 | 16.1 | 0.00 | 0.00 | 0.00 | 52 | 1012.7 |
| 20260505092217 | 6 | 180 | 11.3 | 19.3 | 0.00 | 0.00 | 0.00 | 54 | 1012.6 |
| 20260505091217 | 7 | 203 | 9.7 | 12.9 | 0.00 | 0.00 | 0.00 | 52 | 1012.6 |
| 20260505090217 | 7 | 203 | 12.9 | 16.1 | 0.00 | 0.00 | 0.00 | 52 | 1012.8 |
| 20260505085217 | 7 | 225 | 4.8 | 9.7 | 0.00 | 0.00 | 0.00 | 49 | 1013.1 |
| 20260505084217 | 7 | 248 | 8.0 | 12.9 | 0.00 | 0.00 | 0.00 | 48 | 1013.0 |
| 20260505083217 | 7 | 203 | 16.1 | 25.7 | 0.00 | 0.00 | 0.00 | 46 | 1013.1 |
| 20260505082216 | 7 | 203 | 9.7 | 40.2 | 0.00 | 0.00 | 0.00 | 49 | 1013.4 |
| 20260505081217 | 7 | 270 | 8.0 | 16.1 | 0.00 | 0.00 | 0.00 | 47 | 1013.3 |
| 20260505080217 | 7 | 270 | 1.6 | 6.4 | 0.00 | 0.00 | 0.00 | 45 | 1013.6 |
| 20260505075217 | 7 | 180 | 12.9 | 19.3 | 0.00 | 0.00 | 0.00 | 44 | 1013.8 |
| 20260505074216 | 7 | 248 | 4.8 | 9.7 | 0.00 | 0.00 | 0.00 | 43 | 1013.8 |
| 20260505073237 | 7 | 293 | 6.4 | 16.1 | 0.00 | 0.00 | 0.00 | 42 | 1013.6 |
| 20260505072218 | 7 | 203 | 14.5 | 25.7 | 0.00 | 0.00 | 0.00 | 42 | 1013.0 |
| 20260505071217 | 7 | 180 | 16.1 | 40.2 | 0.00 | 0.00 | 0.00 | 42 | 1012.8 |
| 20260505070346 | 7 | 203 | 12.9 | 19.3 | 0.00 | 0.00 | 0.00 | 43 | 1012.5 |
| 20260505065218 | 8 | 203 | 12.9 | 20.9 | 0.00 | 0.00 | 0.00 | 43 | 1012.8 |
| 20260505064239 | 8 | 203 | 16.1 | 27.4 | 0.00 | 0.00 | 0.00 | 46 | 1012.6 |
| 20260505063218 | 8 | 203 | 25.7 | 35.4 | 0.00 | 0.00 | 0.00 | 49 | 1011.7 |
| 20260505062218 | 8 | 203 | 25.7 | 45.1 | 0.00 | 0.00 | 0.00 | 50 | 1011.8 |
| 20260505061219 | 8 | 203 | 24.1 | 41.8 | 0.00 | 0.00 | 0.00 | 50 | 1011.6 |
| 20260505060239 | 8 | 203 | 19.3 | 27.4 | 0.00 | 0.00 | 0.00 | 50 | 1011.5 |
| 20260505055218 | 8 | 203 | 22.5 | 40.2 | 0.00 | 0.00 | 0.00 | 48 | 1011.3 |
| 20260505054239 | 8 | 203 | 32.2 | 43.5 | 0.00 | 0.00 | 0.00 | 47 | 1011.6 |
| 20260505053238 | 8 | 203 | 29.0 | 38.6 | 0.00 | 0.00 | 0.00 | 46 | 1011.6 |
| 20260505052218 | 8 | 203 | 22.5 | 32.2 | 0.00 | 0.00 | 0.00 | 43 | 1011.4 |
| 20260505051238 | 9 | 203 | 25.7 | 38.6 | 0.00 | 0.00 | 0.00 | 41 | 1011.5 |
| 20260505050218 | 9 | 203 | 24.1 | 35.4 | 0.00 | 0.00 | 0.00 | 38 | 1011.5 |
| 20260505041238 | 10 | 203 | 22.5 | 30.6 | 0.00 | 0.00 | 0.00 | 33 | 1011.4 |
| 20260505040218 | 10 | 203 | 20.9 | 35.4 | 0.00 | 0.00 | 0.00 | 32 | 1010.8 |
| 20260505035217 | 10 | 203 | 33.8 | 51.5 | 0.00 | 0.00 | 0.00 | 32 | 1010.7 |
| 20260505034217 | 10 | 225 | 27.4 | 43.5 | 0.00 | 0.00 | 0.00 | 32 | 1010.9 |
| 20260505033217 | 10 | 225 | 25.7 | 45.1 | 0.00 | 0.00 | 0.00 | 31 | 1010.5 |
| 20260505032218 | 10 | 203 | 27.4 | 35.4 | 0.00 | 0.00 | 0.00 | 29 | 1010.2 |
| 20260505031217 | 10 | 203 | 29.0 | 41.8 | 0.00 | 0.00 | 0.00 | 29 | 1010.1 |
| 20260505030238 | 10 | 203 | 25.7 | 38.6 | 0.00 | 0.00 | 0.00 | 28 | 1009.4 |
| 20260505025218 | 11 | 203 | 22.5 | 32.2 | 0.00 | 0.00 | 0.00 | 28 | 1009.2 |
| 20260505024217 | 11 | 225 | 27.4 | 46.7 | 0.00 | 0.00 | 0.00 | 30 | 1009.4 |
| 20260505023259 | 11 | 203 | 19.3 | 32.2 | 0.00 | 0.00 | 0.00 | 31 | 1009.7 |
| 20260505022217 | 11 | 203 | 24.1 | 41.8 | 0.00 | 0.00 | 0.00 | 32 | 1009.1 |
| 20260505021217 | 11 | 203 | 22.5 | 37.0 | 0.00 | 0.00 | 0.00 | 33 | 1009.5 |
| 20260505020217 | 11 | 203 | 29.0 | 38.6 | 0.00 | 0.00 | 0.00 | 33 | 1009.8 |
| 20260505015217 | 11 | 203 | 25.7 | 35.4 | 0.00 | 0.00 | 0.00 | 34 | 1009.6 |
| 20260505014217 | 11 | 203 | 30.6 | 40.2 | 0.00 | 0.00 | 0.00 | 33 | 1009.4 |
| 20260505013217 | 11 | 225 | 29.0 | 48.3 | 0.00 | 0.00 | 0.00 | 34 | 1009.3 |
| 20260505012217 | 11 | 203 | 30.6 | 40.2 | 0.00 | 0.00 | 0.00 | 35 | 1009.3 |
| 20260505011218 | 11 | 203 | 22.5 | 33.8 | 0.00 | 0.00 | 0.00 | 36 | 1009.3 |
| 20260505010217 | 11 | 203 | 35.4 | 49.9 | 0.00 | 0.00 | 0.00 | 37 | 1009.2 |
| 20260505005218 | 12 | 203 | 29.0 | 38.6 | 0.00 | 0.00 | 0.00 | 38 | 1009.6 |
| 20260505004217 | 12 | 203 | 32.2 | 48.3 | 0.00 | 0.00 | 0.00 | 38 | 1009.9 |
| 20260505003218 | 12 | 203 | 25.7 | 33.8 | 0.00 | 0.00 | 0.00 | 37 | 1010.3 |
| 20260505002217 | 12 | 203 | 29.0 | 40.2 | 0.00 | 0.00 | 0.00 | 37 | 1010.4 |
| 20260505001217 | 12 | 203 | 27.4 | 35.4 | 0.00 | 0.00 | 0.00 | 36 | 1010.3 |
| 20260505000218 | 13 | 203 | 24.1 | 33.8 | 0.00 | 0.00 | 0.00 | 35 | 1010.5 |